Theta_e
320 322 323 323 323 320 318 317 317 318 317 317 318 320 321 322 323 323 324 318 324 325 323 322 320 318 317 316 316 316 316 315 315 314 314 314 313 312 312 311 310 310 309
319 320 320 321 320 320 316 316 316 316 316 316 316 317 319 320 321 322 322 322 322 325 323 323 322 320 318 318 317 316 316 315 314 313 313 312 312 311 310 309 308 307 307
319 319 318 319 318 318 316 314 312 312 312 311 312 312 314 315 317 317 318 319 322 321 324 322 323 322 321 319 318 318 317 315 314 314 313 312 311 310 309 308 307 306 305
319 317 316 317 317 316 315 313 311 309 309 308 309 308 308 309 312 313 312 314 318 320 321 324 323 322 321 321 320 319 318 316 315 314 313 312 311 310 309 308 306 305 304
321 318 317 317 316 314 313 312 311 309 308 310 309 306 308 305 306 305 307 308 310 314 317 319 321 320 321 322 322 320 319 318 316 314 313 312 311 310 309 308 306 305 303
322 322 319 317 315 313 313 311 309 308 308 309 305 301 304 304 301 305 305 303 305 306 311 310 315 319 318 321 321 321 321 319 317 315 314 313 311 310 309 308 306 305 304
323 321 320 319 315 313 313 313 311 304 304 302 298 302 302 302 301 302 304 304 304 303 303 304 306 309 313 320 320 321 322 321 320 317 315 313 312 311 309 308 307 306 304
325 322 321 319 317 317 312 310 307 303 305 300 302 298 301 304 300 301 302 300 304 304 304 304 302 304 306 311 315 320 320 321 321 319 317 314 313 311 310 309 307 306 305
329 326 323 323 319 317 316 312 310 309 305 298 301 303 294 295 297 298 298 299 299 301 303 303 303 301 302 305 310 314 318 319 320 320 318 316 314 312 311 310 308 306 305
329 328 326 323 320 318 317 315 312 311 309 302 298 301 301 299 298 296 295 292 296 295 298 300 301 299 300 300 303 304 308 314 316 316 316 317 315 313 312 310 307 306 305
324 327 327 325 322 320 319 318 312 310 310 310 303 298 299 300 295 293 298 301 291 291 293 296 300 300 298 300 299 301 303 307 311 312 312 313 314 313 312 310 307 306 304
316 318 322 324 324 321 319 318 315 311 311 309 310 306 302 297 297 296 294 297 299 302 294 292 293 297 300 298 299 300 302 305 308 310 310 310 310 311 311 309 307 305 304
312 314 315 319 321 321 320 318 316 313 310 310 309 307 306 305 305 299 298 298 296 296 292 293 294 293 296 297 297 297 299 302 306 308 308 308 308 308 307 306 305 303 302
312 312 312 313 317 319 320 318 317 313 312 310 309 308 308 306 306 305 302 298 297 299 292 293 291 293 293 295 295 296 296 299 303 306 308 308 307 306 305 303 301 300 300
306 307 307 307 308 310 314 316 315 313 310 309 309 309 308 309 305 306 304 304 301 298 299 302 292 291 291 294 293 293 294 295 299 303 305 307 306 304 302 300 299 299 299
303 303 303 304 305 305 306 309 311 313 311 310 309 308 307 307 307 305 304 303 301 300 297 301 296 293 290 290 290 291 291 293 295 298 302 304 303 300 299 299 298 298 297
299 300 300 301 301 302 303 303 305 308 308 308 308 306 305 306 305 305 303 302 301 299 296 300 296 291 288 288 288 289 290 290 290 294 297 301 299 297 298 298 297 296 294
297 297 297 298 298 299 300 300 301 302 303 303 305 305 304 303 302 304 303 301 299 299 297 295 298 286 286 286 287 286 287 288 288 290 294 297 296 296 296 296 295 293 293
293 294 294 295 295 297 298 299 300 301 302 303 303 302 302 302 299 300 300 299 298 298 297 295 295 284 284 284 283 284 284 285 286 288 292 294 294 294 294 294 293 292 292
291 292 292 292 292 293 294 295 298 299 300 300 301 301 301 298 299 298 296 296 295 294 293 292 292 284 282 283 283 282 281 283 283 285 288 289 291 292 293 293 291 291 289
289 289 289 290 290 290 292 293 293 294 295 295 296 296 297 296 293 296 294 294 292 291 291 289 289 282 281 280 280 282 281 281 282 284 285 285 286 286 288 289 287 287 288
287 287 287 287 288 289 292 292 292 291 291 290 291 292 291 288 290 292 294 295 293 290 288 288 288 285 283 281 282 281 280 279 277 282 282 281 285 284 284 285 286 287 288
285 285 285 286 286 287 289 291 291 289 289 290 289 289 288 288 287 288 290 292 292 293 294 288 286 284 282 282 282 281 281 281 280 281 282 280 283 282 284 284 287 288 287
283 283 283 284 284 284 288 290 290 289 288 289 288 288 287 287 287 285 286 286 286 286 286 286 285 285 285 284 284 283 283 282 281 282 282 279 281 280 282 282 286 285 284
281 280 282 281 281 282 286 288 289 286 286 286 286 286 285 285 286 287 285 284 284 284 286 287 287 287 287 287 285 283 281 281 278 279 281 279 277 276 276 276 278 284 281
279 280 280 280 278 279 283 286 287 285 284 285 284 283 283 285 286 287 285 284 282 283 284 284 285 286 286 286 286 285 283 281 279 278 280 277 276 275 272 273 274 275 274
Wind_Speed
6 5 4 4 4 4 4 4 3 3 3 4 3 5 6 5 6 4 4 7 10 13 11 8 8 7 7 6 7 7 7 8 8 8 8 8 8 8 8 8 8 8 8
6 6 5 5 4 4 4 3 4 4 3 4 4 5 6 5 7 7 6 7 9 10 15 14 11 10 9 10 9 9 9 9 9 8 8 8 8 7 7 6 6 6 6
8 7 6 6 5 5 5 4 2 2 3 3 4 4 5 5 6 7 6 5 8 9 13 16 16 15 14 13 12 12 12 11 11 11 10 10 9 8 7 6 6 5 4
8 6 5 5 5 5 4 5 5 4 3 3 2 3 3 3 6 6 5 5 7 7 10 14 17 16 15 16 16 15 15 15 15 14 14 12 11 10 9 8 7 5 4
11 8 7 6 6 5 6 6 5 3 4 5 5 4 4 4 4 3 7 7 6 7 7 10 14 17 19 20 20 18 17 18 18 17 16 15 14 13 12 10 8 7 6
11 10 8 8 7 5 6 6 6 5 3 6 4 3 5 6 5 8 9 5 6 7 8 7 8 10 17 22 22 21 21 21 19 19 18 18 17 16 15 12 11 10 8
11 10 6 7 8 9 10 10 6 5 6 3 2 4 7 9 10 10 9 10 11 10 7 8 6 6 9 22 26 26 25 24 24 23 22 20 19 18 16 15 14 12 11
12 11 11 9 9 8 8 9 8 3 4 7 4 1 4 4 9 12 10 10 14 10 12 13 10 11 9 9 17 28 27 27 26 25 25 23 22 20 19 18 16 15 14
12 12 12 11 10 9 9 10 11 12 8 6 9 4 3 7 2 2 11 11 12 10 11 12 14 12 11 10 13 18 25 28 28 25 25 25 25 23 22 20 18 16 16
10 10 11 12 11 8 10 10 10 10 8 7 4 9 6 1 5 4 4 5 9 10 13 10 11 12 12 10 14 13 14 24 24 25 24 26 27 25 23 22 19 18 17
9 9 8 9 9 9 11 11 9 12 10 9 8 3 9 9 4 6 11 6 3 8 8 10 11 10 12 12 11 14 20 22 21 22 23 24 22 24 24 21 19 19 18
4 8 9 8 7 9 10 10 11 13 12 11 9 9 8 5 6 9 10 12 12 7 8 8 10 11 11 11 16 22 24 27 27 24 23 24 25 24 23 22 20 21 19
3 6 7 8 7 6 8 9 9 11 11 11 13 10 10 11 9 6 7 8 8 4 5 8 10 9 11 11 13 22 24 28 29 28 26 25 27 26 25 22 20 19 19
4 4 5 6 9 9 7 7 8 8 10 10 14 11 9 10 9 10 9 7 9 9 5 5 6 10 10 11 14 20 14 25 30 30 28 27 27 26 24 21 18 20 20
3 5 5 7 7 9 10 11 8 9 9 10 11 12 11 9 9 10 9 9 10 14 15 8 5 9 8 8 12 11 13 19 27 30 28 26 26 24 22 20 19 21 19
4 5 6 6 8 8 8 9 10 11 11 9 9 12 12 9 10 8 10 9 9 12 18 2 5 5 6 6 8 10 11 15 22 27 28 24 21 20 21 20 20 18 14
4 5 5 7 8 8 8 8 10 11 13 12 10 11 13 12 9 9 8 9 10 10 14 12 5 3 5 7 6 8 8 9 8 20 25 21 16 19 19 19 16 14 11
5 6 5 6 7 8 8 9 11 10 12 13 13 13 13 8 12 12 9 12 11 11 11 18 10 4 7 5 5 6 5 5 5 11 20 23 19 20 17 14 15 13 13
7 7 6 6 8 8 9 9 10 11 12 13 12 12 13 12 11 10 10 10 8 9 10 10 11 1 2 1 2 2 3 3 3 10 17 21 18 18 16 16 14 9 12
8 8 6 6 7 7 8 9 10 11 12 11 12 12 12 11 13 11 10 11 10 8 8 9 9 3 3 3 3 3 4 2 3 4 8 8 11 13 15 15 10 10 4
8 9 10 10 9 7 6 7 8 10 11 11 10 11 11 11 13 13 7 8 8 8 8 7 8 3 4 4 6 4 5 4 2 1 2 2 3 4 4 6 5 8 7
9 9 10 9 10 7 13 14 12 8 8 9 10 9 8 8 10 14 15 15 11 9 10 8 8 7 5 3 4 4 3 4 3 4 4 3 4 5 4 3 7 10 10
8 8 9 9 10 10 16 17 15 7 8 8 8 8 7 5 7 7 10 14 14 16 17 5 8 5 4 6 6 8 6 4 2 6 7 6 3 3 4 5 12 11 6
8 9 9 9 9 9 16 16 14 8 8 9 9 8 7 7 6 5 6 7 6 3 1 1 4 3 3 5 6 4 8 8 5 4 2 3 3 2 4 3 7 8 13
7 7 7 9 9 9 16 17 13 7 8 9 6 6 6 6 8 10 5 5 3 1 4 6 6 7 8 14 12 9 7 7 3 1 1 3 2 3 3 2 1 11 12
9 6 9 8 8 9 14 17 14 6 7 6 4 4 7 7 9 8 4 4 4 2 3 3 5 9 9 11 11 4 6 5 3 2 2 3 3 3 3 1 2 5 4
Wind_Direction
169 168 167 166 166 162 164 161 159 155 144 141 159 183 190 203 195 185 191 219 183 166 173 193 189 203 204 194 191 188 179 174 171 170 167 158 152 146 142 134 124 115 104
178 180 175 182 185 186 178 182 183 181 183 183 191 201 216 224 217 200 201 205 213 199 184 189 201 207 220 203 205 206 199 194 188 189 186 178 174 166 158 148 135 122 109
187 184 189 195 196 195 180 175 183 187 194 213 220 212 219 231 233 229 214 217 216 233 203 201 200 208 211 222 212 214 213 211 205 203 201 197 197 189 180 172 161 145 127
188 182 192 207 187 185 185 193 185 190 201 214 223 247 269 258 246 248 255 222 218 221 235 220 209 209 222 223 222 217 217 217 212 212 209 208 206 205 198 193 188 177 171
194 184 197 207 177 185 195 196 207 194 203 217 221 215 224 238 247 269 260 249 254 242 224 228 218 208 208 223 231 225 225 223 218 214 213 213 212 211 210 206 204 206 209
203 203 198 190 175 184 201 199 200 200 214 219 220 258 249 241 214 234 239 251 258 256 253 256 265 224 211 219 229 231 226 225 229 220 218 216 219 217 215 213 214 218 224
204 202 210 211 189 195 205 207 200 184 210 166 117 240 253 244 246 242 240 238 237 233 237 241 238 254 239 219 224 232 233 228 225 219 217 219 221 223 222 219 220 223 228
203 199 203 204 203 212 200 193 187 183 215 181 186 41 283 255 233 233 224 227 238 235 233 232 231 241 243 238 224 226 235 242 232 223 217 216 221 220 223 225 225 229 233
210 207 209 211 206 202 212 205 199 202 215 197 204 184 185 237 349 211 232 230 232 232 237 231 229 229 236 244 245 230 229 236 243 239 225 218 219 220 222 224 225 232 236
220 211 214 212 208 206 216 217 203 209 206 208 221 233 250 189 251 306 240 242 234 238 242 240 233 227 226 227 235 241 243 235 234 240 238 231 222 219 219 225 224 231 237
230 231 226 221 214 210 220 214 202 208 208 220 210 162 224 233 222 245 276 252 239 234 233 231 236 245 231 227 230 235 233 235 234 227 229 246 232 226 225 225 228 234 235
235 238 243 243 229 219 221 218 211 209 214 219 221 222 206 187 204 217 239 256 255 235 223 220 224 229 231 229 226 229 229 231 233 227 227 227 228 229 221 222 230 237 237
239 247 236 245 245 235 225 219 217 217 214 220 218 221 223 226 223 212 227 254 253 227 240 228 228 226 230 227 229 225 227 228 230 230 226 220 223 225 225 218 228 242 244
273 283 266 255 252 254 251 236 236 224 227 226 229 226 226 228 224 224 230 231 269 257 220 246 216 225 229 229 230 228 231 230 234 233 231 225 221 220 215 215 222 241 244
271 278 265 263 256 250 249 251 240 240 223 225 230 232 233 236 226 230 229 227 244 281 274 250 228 218 226 228 232 226 228 237 238 237 233 232 214 216 213 217 222 234 239
291 292 286 277 275 262 252 247 251 247 238 236 236 234 232 235 236 221 226 227 226 248 276 235 228 210 206 220 227 225 231 234 237 239 240 231 210 208 211 214 222 229 230
305 283 274 276 271 271 267 259 260 259 256 255 241 238 239 237 233 230 219 225 230 230 255 269 275 197 203 214 214 215 221 223 233 236 241 232 197 210 216 217 216 213 223
319 301 300 284 276 269 260 254 259 255 254 254 255 256 248 236 233 238 232 230 226 224 240 264 262 203 212 213 219 207 214 221 222 227 233 237 205 206 212 209 201 206 236
328 325 290 289 291 284 277 264 260 259 254 254 251 249 256 251 244 240 235 239 232 233 234 252 268 123 187 170 155 183 190 187 179 198 223 228 206 203 202 203 197 214 237
329 319 319 299 288 285 278 273 267 267 271 267 267 260 255 242 248 242 236 237 239 234 233 239 250 200 177 181 184 175 184 174 171 181 207 188 194 209 204 198 187 219 149
324 323 324 324 317 306 296 293 278 278 273 273 264 257 257 256 247 246 238 240 232 235 239 236 242 193 185 180 196 176 190 152 90 111 150 144 149 157 168 176 152 161 184
326 326 324 318 315 311 306 302 293 283 273 269 273 265 255 259 261 257 256 251 235 229 235 231 240 232 217 184 153 163 138 151 169 172 142 136 146 138 130 158 184 198 224
313 315 311 311 306 302 304 303 296 281 268 264 266 269 269 252 257 265 270 269 266 251 237 218 237 208 185 180 161 154 169 157 157 154 138 145 154 177 179 203 217 225 197
308 311 307 304 302 296 303 300 291 278 268 259 253 253 253 261 252 254 262 266 263 242 134 162 197 177 183 162 162 139 136 109 75 120 78 119 130 135 127 111 157 149 141
304 291 291 292 289 287 298 298 296 278 275 270 264 261 256 256 257 263 235 244 197 117 125 150 150 155 161 147 133 129 129 132 123 151 173 96 120 93 51 82 113 154 137
295 295 295 282 275 279 290 296 297 274 275 282 273 282 287 274 281 272 234 173 145 113 109 99 103 113 121 127 115 104 135 137 107 123 169 100 123 129 125 14 63 80 100